Back to catalog

SL-8 R/B

AlivePO
NORAD 9044·ROCKET BODY·🇷🇺 Russia

Launched Jul 21, 1976 from Plesetsk Cosmodrome

Loading…

Next Passes (next 24 hours)

TLE

FreshSource: Space-Track

Epoch: Sep 14, 2026, 08:47 UTC

1 09044U 76070B   26257.36599477  .00000014  00000-0 -11438-5 0  9997
2 09044  82.9865 302.8141 0013689 192.3882 178.6463 13.76457326517929

Track SL-8 R/B in real time with AllMySat

Download on the App Store